[[{"header":{"parameterUnit":"m.s-1","parameterCategory":1,"la1":30.2991,"la2":30.254,"lo1":-89.0895,"lo2":-89.0444,"dy":0.0017,"dx":0.0017,"nx":28,"ny":28,"refTime":"2023-09-28T03:00:00:Z","depth":0,"parameterNumber":2,"parameterNumberName":"U-component_of_WINDS"},"data":[0,0,0,0,0,0,0,0,0,0,0,0,0,0,0,0,0,0,0,0,0,0,0,0,0,0,0,0,0,0,0,0,0,0,0,0,0,0,0,0,0,0,0,0,0,0,0,0,0,0,0,0,0,0,0,0,0,0,-5.4632,-5.4632,0,-5.4655,-5.4655,-5.4656,-5.4505,-5.4501,-5.4497,-5.4493,-5.4516,-5.4521,-5.4525,0,0,0,0,0,0,0,0,0,0,0,0,0,-5.4456,-5.446,-5.4632,-5.4632,-5.4632,-5.4655,-5.4655,-5.4656,-5.4506,-5.4501,-5.4496,-5.4491,-5.4515,-5.452,-5.4526,0,0,0,0,0,0,0,0,0,0,0,0,0,-5.4511,-5.4461,-5.4632,-5.456,-5.4554,-5.4655,-5.4655,-5.4656,-5.4507,-5.4501,-5.4495,-5.4489,-5.4513,-5.452,-5.4526,-5.4696,0,0,-5.4547,-5.455,0,0,0,0,0,0,0,0,-5.4508,-5.4518,-5.4571,-5.4566,-5.4559,-5.4571,-5.4602,-5.4669,-5.4509,-5.4525,-5.4493,-5.4485,-5.454,-5.4544,-5.4562,-5.4697,-5.4698,-5.4548,-5.4552,-5.4555,-5.4557,0,0,0,0,0,0,0,-5.4505,-5.4516,-5.4641,-5.4572,-5.4564,-5.4527,-5.4528,-5.4614,-5.4568,-5.4523,-5.4512,-5.4517,-5.4535,-5.4556,-5.4562,-5.4699,-5.4548,-5.4554,-5.4558,-5.4561,-5.4973,-5.498,0,0,0,0,0,0,-5.451,-5.4514,-5.464,-5.4641,-5.4517,-5.4535,-5.4536,-5.4573,-5.4566,-5.4559,-5.4523,-5.451,-5.4547,-5.4554,-5.4562,-5.4759,-5.4555,-5.4562,-5.4565,-5.4967,-5.4975,-5.4982,0,0,0,0,0,0,-5.4507,-5.4523,-5.4639,-5.4575,-5.4587,-5.4545,-5.4588,-5.4577,-5.4598,-5.4566,-5.4557,-5.4553,-5.4543,-5.4552,-5.4664,-5.4758,-5.4565,-5.4571,-5.4959,-5.4969,-5.4979,-5.5157,0,0,0,0,0,0,-5.4503,-5.4523,-5.4587,-5.4577,-5.4591,-5.4742,-5.4594,-5.4582,-5.461,-5.4594,-5.4592,-5.4585,-5.4538,-5.4654,-5.4671,-5.4764,-5.4576,-5.495,-5.4963,-5.4975,-5.5142,-5.5172,-5.5197,0,0,0,0,0,-5.4497,-5.4637,-5.4592,-5.4608,-5.4671,-5.4747,-5.4755,-5.4698,-5.4619,-5.4683,-5.4662,-5.4585,-5.4746,-5.4667,-5.4684,-5.4781,-5.4944,-5.496,-5.4974,-5.513,-5.5166,-5.5196,0,0,0,0,0,0,-5.4658,-5.4634,-5.4584,-5.4724,-5.4739,-5.4722,-5.4801,-5.4739,-5.4776,-5.476,-5.4688,-5.4688,-5.4812,-5.4807,-5.4721,-5.4945,-5.483,-5.485,-5.4943,-5.4977,-5.5004,-5.5002,-5.4582,0,0,0,0,0,-5.4711,-5.4776,-5.475,-5.4877,-5.4887,-5.4843,-5.4875,-5.483,-5.4842,-5.4848,-5.4835,-5.485,-5.4903,-5.494,-5.4987,-5.5141,-5.5138,-5.5216,-5.5244,-5.5266,-5.5284,-5.5364,-5.5398,-5.5033,-5.5033,-5.5033,0,0,-5.4818,-5.4813,-5.4858,-5.4909,-5.4915,-5.4983,-5.4849,-5.4927,-5.4977,-5.4859,-5.4963,-5.4956,-5.4967,-5.51,-5.5158,-5.51,-5.5384,-5.5286,-5.5304,-5.5309,-5.5383,-5.5418,-5.5449,-5.5043,-5.5041,-5.504,0,0,-5.505,-5.5053,-5.5158,-5.5167,-5.5178,-5.5148,-5.5174,-5.5166,-5.5156,-5.526,-5.5173,-5.5231,-5.5325,-5.5336,-5.5355,-5.5591,-5.5521,-5.5609,-5.5752,-5.5831,-5.5859,-5.5884,-5.5968,-5.5999,-5.5626,-5.5627,-5.5627,0,-5.5182,-5.5282,-5.522,-5.5304,-5.5328,-5.5225,-5.533,-5.5342,-5.5369,-5.5388,-5.5323,-5.5438,-5.5439,-5.5573,-5.5631,-5.5649,-5.5675,-5.5608,-5.586,-5.5885,-5.5907,-5.5986,-5.6018,-5.5637,-5.5636,-5.5635,-5.5634,0,-5.5444,-5.5514,-5.5598,-5.5626,-5.566,-5.5755,-5.5706,-5.5748,-5.5701,-5.5678,-5.5784,-5.5782,-5.5826,-5.5855,-5.581,-5.5983,-5.5947,-5.5873,-5.5756,-5.5954,-5.6026,-5.6056,-5.5652,-5.5648,-5.5645,-5.5643,0,0,-5.5776,-5.5769,-5.5801,-5.5812,-5.5817,-5.587,-5.596,-5.6004,-5.6041,-5.6063,-5.6136,-5.6218,-5.6149,-5.617,-5.6125,-5.6194,-5.638,-5.6111,-5.611,-5.616,-5.657,-5.6626,-5.6662,-5.6335,-5.634,-5.6345,-5.6569,0,-5.6001,-5.6154,-5.6101,-5.6256,-5.632,-5.6223,-5.6301,-5.6313,-5.6294,-5.6345,-5.6324,-5.6383,-5.6288,-5.63,-5.6364,-5.6344,-5.6462,-5.6327,-5.6401,-5.6404,-5.64,-5.67,-5.6758,-5.697,-5.6597,-5.6602,-5.6605,0,-5.6283,-5.6317,-5.6479,-5.6473,-5.6498,-5.6569,-5.6605,-5.6655,-5.6666,-5.6647,-5.6671,-5.6611,-5.6698,-5.6583,-5.6702,-5.6612,-5.6639,-5.6634,-5.664,-5.6644,-5.6516,-5.671,-5.7036,-5.7068,-5.665,-5.6646,-5.6643,0,-5.6508,-5.6594,-5.6702,-5.6715,-5.6711,-5.6763,-5.6763,-5.6768,-5.6798,-5.6829,-5.6848,-5.6889,-5.6912,-5.6945,-5.6898,-5.6819,-5.7023,-5.6904,-5.7009,-5.7011,-5.7055,-5.7053,-5.7389,-5.7076,-5.7075,-5.7075,-5.7074,0,-5.6764,-5.6867,-5.6803,-5.6869,-5.6981,-5.6919,-5.7032,-5.7021,-5.7026,-5.7089,-5.7008,-5.7068,-5.7002,-5.7056,-5.702,-5.7123,-5.7134,-5.7121,-5.711,-5.7128,-5.7129,-5.7143,-5.7127,-5.7083,-5.7081,-5.7079,-5.7078,0,-5.7034,-5.6995,-5.7106,-5.7093,-5.7092,-5.7176,-5.7164,-5.7224,-5.72,-5.728,-5.7295,-5.7257,-5.7316,-5.7273,-5.7331,-5.7307,-5.7442,-5.7411,-5.7439,-5.743,-5.7537,-5.7527,-5.7893,-5.7937,-5.7597,-5.76,-5.7603,0,-5.7199,-5.7276,-5.7271,-5.7307,-5.7313,-5.7372,-5.7402,-5.7344,-5.7379,-5.7397,-5.7456,-5.7508,-5.7547,-5.7646,-5.7623,-5.7668,-5.7636,-5.7761,-5.7642,-5.7657,-5.7636,-5.7632,-5.7639,-5.7785,-5.7789,-5.7792,-5.7795,0,-5.7496,-5.7473,-5.7519,-5.756,-5.7598,-5.7627,-5.765,-5.7684,-5.7625,-5.7668,-5.7727,-5.7758,-5.7818,-5.7871,-5.7907,-5.7906,-5.7842,-5.7833,-5.7859,-5.7877,-5.789,-5.7883,-5.7503,-5.7824,-5.7821,-5.7819,-5.7818,-5.7817,-5.7717,-5.778,-5.7787,-5.7842,-5.7853,-5.7876,-5.7932,-5.7915,-5.7963,-5.8008,-5.7971,-5.8042,-5.8051,-5.8093,-5.8101,-5.8156,-5.8104,-5.8143,-5.8152,-5.8162,-5.8177,-5.7883,-5.8162,-5.8161,-5.816,-5.816,-5.8159,0,-5.8008,-5.8008,-5.8059,-5.8093,-5.8136,-5.8072,-5.8093,-5.8133,-5.8197,-5.8211,-5.8251,-5.8319,-5.837,-5.8352,-5.8397,-5.8444,-5.8416,-5.8458,-5.8453,-5.8454,-5.8221,-5.8193,-5.8481,-5.8481,-5.8481,-5.8481,-5.848,-5.848,-5.8165,-5.8269,-5.8247,-5.8355,-5.8353,-5.8423,-5.8441,-5.8461,-5.8472,-5.8552,-5.8594,-5.8582,-5.8583,-5.8627,-5.8671,-5.8664,-5.8684,-5.8738,-5.872,-5.8502,-5.8471,-5.844,-5.8414,-5.8743,-5.8743,-5.8948,-5.895,-5.8952]},{"header":{"parameterUnit":"m.s-1","parameterCategory":1,"la1":30.2991,"la2":30.254,"lo1":-89.0895,"lo2":-89.0444,"dy":0.0017,"dx":0.0017,"nx":28,"ny":28,"refTime":"2023-09-28T03:00:00:Z","depth":0,"parameterNumber":3,"parameterNumberName":"V-component_of_WINDS"},"data":[0,0,0,0,0,0,0,0,0,0,0,0,0,0,0,0,0,0,0,0,0,0,0,0,0,0,0,0,0,0,0,0,0,0,0,0,0,0,0,0,0,0,0,0,0,0,0,0,0,0,0,0,0,0,0,0,0,0,-2.8059,-2.806,0,-2.81,-2.81,-2.8101,-2.809,-2.8089,-2.8088,-2.8087,-2.8126,-2.8128,-2.813,0,0,0,0,0,0,0,0,0,0,0,0,0,-2.7967,-2.7969,-2.8059,-2.806,-2.806,-2.81,-2.81,-2.8101,-2.809,-2.8089,-2.8088,-2.8087,-2.8125,-2.8128,-2.813,0,0,0,0,0,0,0,0,0,0,0,0,0,-2.8008,-2.797,-2.8059,-2.8059,-2.806,-2.81,-2.81,-2.8101,-2.809,-2.8089,-2.8087,-2.8086,-2.8125,-2.8127,-2.813,-2.8171,0,0,-2.8138,-2.8139,0,0,0,0,0,0,0,0,-2.8005,-2.8011,-2.8059,-2.8059,-2.806,-2.8088,-2.8082,-2.8124,-2.809,-2.8078,-2.8087,-2.8086,-2.8114,-2.8118,-2.8128,-2.8173,-2.8175,-2.8138,-2.814,-2.8141,-2.8142,0,0,0,0,0,0,0,-2.8003,-2.8009,-2.8075,-2.806,-2.806,-2.8056,-2.8061,-2.809,-2.8103,-2.8079,-2.8079,-2.8084,-2.8114,-2.8125,-2.8129,-2.8175,-2.8138,-2.8141,-2.8142,-2.8144,-2.8253,-2.8254,0,0,0,0,0,0,-2.8,-2.8007,-2.8074,-2.8076,-2.8029,-2.8059,-2.8064,-2.8081,-2.8102,-2.8105,-2.8085,-2.8083,-2.8121,-2.8126,-2.813,-2.8178,-2.8141,-2.8144,-2.8145,-2.8252,-2.8253,-2.8255,0,0,0,0,0,0,-2.7998,-2.8006,-2.8072,-2.8041,-2.805,-2.8062,-2.8081,-2.8082,-2.8093,-2.8106,-2.8108,-2.8094,-2.8121,-2.8126,-2.8161,-2.8179,-2.8145,-2.8147,-2.825,-2.8252,-2.8254,-2.8275,0,0,0,0,0,0,-2.7995,-2.8005,-2.8022,-2.8042,-2.8051,-2.8103,-2.8082,-2.8084,-2.8098,-2.8096,-2.8116,-2.8118,-2.812,-2.8157,-2.8163,-2.8182,-2.815,-2.8249,-2.8251,-2.8253,-2.8273,-2.8277,-2.8281,0,0,0,0,0,-2.7992,-2.8026,-2.8023,-2.8031,-2.8073,-2.8104,-2.811,-2.8113,-2.81,-2.8116,-2.8124,-2.8117,-2.8176,-2.816,-2.8168,-2.8188,-2.8247,-2.825,-2.8253,-2.8271,-2.8276,-2.8281,0,0,0,0,0,0,-2.8008,-2.8029,-2.8026,-2.8068,-2.8084,-2.8103,-2.8123,-2.8119,-2.8139,-2.8137,-2.8139,-2.8143,-2.8178,-2.8186,-2.8168,-2.8227,-2.821,-2.8214,-2.822,-2.8226,-2.823,-2.8227,-2.8152,0,0,0,0,0,-2.8016,-2.8041,-2.8058,-2.8093,-2.8102,-2.8111,-2.8125,-2.8126,-2.8143,-2.815,-2.8161,-2.8176,-2.8198,-2.8213,-2.8234,-2.8274,-2.8277,-2.8291,-2.8296,-2.8299,-2.8303,-2.8322,-2.8328,-2.8264,-2.8264,-2.8264,0,0,-2.8034,-2.8048,-2.8064,-2.8097,-2.811,-2.8134,-2.8117,-2.8144,-2.8162,-2.8154,-2.8186,-2.8195,-2.8212,-2.8249,-2.8266,-2.8257,-2.8321,-2.8303,-2.8306,-2.8307,-2.8326,-2.8332,-2.8337,-2.8266,-2.8266,-2.8266,0,0,-2.8078,-2.8092,-2.8122,-2.8136,-2.8156,-2.8161,-2.8168,-2.8187,-2.8192,-2.8226,-2.8219,-2.824,-2.8278,-2.829,-2.8302,-2.8348,-2.8342,-2.8355,-2.8378,-2.8397,-2.8402,-2.8406,-2.8421,-2.8427,-2.8359,-2.8359,-2.8359,0,-2.8097,-2.8135,-2.8138,-2.8165,-2.8179,-2.8173,-2.8202,-2.8215,-2.824,-2.8249,-2.8239,-2.8286,-2.8298,-2.8336,-2.8348,-2.8358,-2.8364,-2.8353,-2.8401,-2.8405,-2.841,-2.8424,-2.843,-2.836,-2.836,-2.836,-2.836,0,-2.8156,-2.8182,-2.8203,-2.8228,-2.8244,-2.8272,-2.8279,-2.8294,-2.8293,-2.8299,-2.8332,-2.8346,-2.8368,-2.8378,-2.8377,-2.8416,-2.8409,-2.8401,-2.8383,-2.8417,-2.843,-2.8436,-2.8362,-2.8362,-2.8361,-2.8361,0,0,-2.8211,-2.8237,-2.8245,-2.8255,-2.8276,-2.8296,-2.8322,-2.8345,-2.8358,-2.8375,-2.8396,-2.8428,-2.842,-2.8433,-2.8433,-2.845,-2.8484,-2.8439,-2.8439,-2.8445,-2.8525,-2.853,-2.8537,-2.848,-2.8481,-2.8482,-2.8522,0,-2.8255,-2.8304,-2.8307,-2.835,-2.8372,-2.8367,-2.839,-2.8404,-2.841,-2.8429,-2.8436,-2.8457,-2.8445,-2.8453,-2.8469,-2.8476,-2.8499,-2.8474,-2.8498,-2.8499,-2.8492,-2.8544,-2.855,-2.8588,-2.8528,-2.8529,-2.8529,0,-2.8314,-2.8333,-2.8379,-2.8395,-2.8404,-2.8425,-2.8445,-2.8464,-2.848,-2.8483,-2.8496,-2.8494,-2.852,-2.8502,-2.8536,-2.8518,-2.8528,-2.8533,-2.8534,-2.8536,-2.8515,-2.8545,-2.86,-2.8605,-2.8538,-2.8537,-2.8537,0,-2.8347,-2.8385,-2.8416,-2.8426,-2.8446,-2.846,-2.8469,-2.8483,-2.8496,-2.8513,-2.8521,-2.8541,-2.8552,-2.8567,-2.8569,-2.8556,-2.8603,-2.8585,-2.8604,-2.8604,-2.8614,-2.8613,-2.867,-2.8623,-2.8623,-2.8623,-2.8622,0,-2.8396,-2.8423,-2.8431,-2.845,-2.848,-2.8483,-2.8512,-2.852,-2.8532,-2.8551,-2.8548,-2.8566,-2.8568,-2.8587,-2.8589,-2.8615,-2.8621,-2.8623,-2.8622,-2.8622,-2.8622,-2.8628,-2.8625,-2.8624,-2.8624,-2.8623,-2.8623,0,-2.8438,-2.8445,-2.8478,-2.8494,-2.8499,-2.852,-2.8533,-2.855,-2.8556,-2.858,-2.8586,-2.8594,-2.8615,-2.8619,-2.8644,-2.8645,-2.8676,-2.8674,-2.8671,-2.867,-2.8689,-2.8686,-2.875,-2.8758,-2.8707,-2.8708,-2.8708,0,-2.8468,-2.8489,-2.8507,-2.852,-2.8529,-2.855,-2.8563,-2.8566,-2.858,-2.8598,-2.8613,-2.8633,-2.865,-2.8683,-2.8691,-2.8709,-2.8707,-2.8728,-2.8709,-2.8708,-2.8705,-2.8703,-2.8704,-2.8731,-2.8731,-2.8732,-2.8732,0,-2.852,-2.8522,-2.8541,-2.8561,-2.8577,-2.8593,-2.8608,-2.8618,-2.8623,-2.8638,-2.8659,-2.8672,-2.8697,-2.8717,-2.8735,-2.8743,-2.8738,-2.8738,-2.8743,-2.8742,-2.8739,-2.8739,-2.8679,-2.8736,-2.8736,-2.8736,-2.8735,-2.8735,-2.8556,-2.8573,-2.8588,-2.8609,-2.8621,-2.8634,-2.8651,-2.8658,-2.8676,-2.8697,-2.8698,-2.8721,-2.8734,-2.8758,-2.8766,-2.8783,-2.8777,-2.8784,-2.8786,-2.8787,-2.8788,-2.8737,-2.8787,-2.8787,-2.8787,-2.8787,-2.8787,0,-2.8605,-2.8614,-2.8634,-2.8655,-2.8671,-2.8666,-2.8681,-2.8695,-2.8715,-2.8728,-2.8745,-2.8768,-2.8787,-2.8796,-2.8814,-2.8826,-2.8824,-2.883,-2.8829,-2.883,-2.8794,-2.8787,-2.8831,-2.8831,-2.8831,-2.8831,-2.8831,-2.8831,-2.8633,-2.8662,-2.8665,-2.8699,-2.8707,-2.873,-2.8739,-2.8751,-2.8761,-2.8788,-2.8804,-2.881,-2.882,-2.8839,-2.8855,-2.8857,-2.8863,-2.8871,-2.8871,-2.8837,-2.8833,-2.8828,-2.8822,-2.8872,-2.8872,-2.8905,-2.8906,-2.8906]}]]